www.pogodaiklimat.ru

Погода и климат >> Архив погоды >> Россия >> Краснодарский край >> Армавир


АРХИВ ПОГОДЫ в Армавире

Время (UTC), дата Ветер
(напр.,м/с)
 
Видим.   Явления Облачность Т
(С)
Тd
(С)
f
(%)
Тe
(С)
Тes
(С)
Комфортность P
(гПа)
Po
(гПа)
Тmin
(С)
Tmax
(С)
R
(мм)
R24
(мм)
S
(см)
03 18.08 ЮЗ 1 10 км гроза, ливневой дождь 10/10 600 м
[Cb cap]
+20.5 +18.7 89 +25 +25 комфорт 1009.3 990.9 +19.5 0.0
06 18.08 штиль 0 10 км в посл. час ливневой дождь {гроза} 10/10 600 м
[Cb cap]
+21.8 +20.2 91 +28 +28 душно 1009.6 991.3
09 18.08 СЗ 2 10 км {гроза, ливн. осадки} 8/6 600 м
[Cu Sc Ac cast Ci fib]
+23.7 +21.8 89 +30 +35 очень
душно
1008.9 990.8
12 18.08 СЗ 3 10 км {гроза, ливн. осадки} 10/4 600 м
[Cu med, cong Ac cast]
+27.8 +20.0 63 +34 +36 очень
душно
1009.0 991.1
15 18.08 СЗ 2 10 км 9/0
[Ac trans]
+27.1 +19.5 63 +33 +33 очень
душно
1009.5 991.6 +28.5 12
18 18.08 СЗ 1 10 км ясно +22.8 +19.8 83 +29 +29 очень
душно
1011.7 993.5
21 18.08 З 3 10 км 10/0
[Ac und]
+21.4 +19.8 91 +26 +26 душно 1012.6 994.3
00 19.08 З 2 10 км 10/0
[Ac As]
+21.4 +19.4 88 +26 +26 душно 1013.3 995.0
03 19.08 З 2 2000 м дымка 10/10 300 м
[St]
+20.9 +19.8 93 +26 +26 душно 1014.0 995.6 +20.9
06 19.08 З 2 10 км 10/10 300 м
[St]
+21.3 +18.9 86 +26 +26 душно 1015.5 997.1 +20.5
09 19.08 ЮЗ 1 10 км 10/3 300 м
[St Ac und]
+25.8 +19.2 67 +31 +35 очень
душно
1015.3 997.2
12 19.08 З 2 10 км 3/3 600 м
[Cu hum]
+30.0 +19.5 53 +36 +43 очень
душно
1014.1 996.3
15 19.08 СЗ 2 10 км 3/3 600 м
[Cu hum]
+31.2 +18.7 47 +36 +37 очень
душно
1013.7 996.0 +31.6
18 19.08 СЗ 2 10 км ясно +24.6 +19.5 73 +30 +30 очень
душно
1015.1 996.9
21 19.08 СВ 2 10 км 1/0
[Ac trans]
+24.7 +17.1 63 +29 +29 душно 1015.5 997.3
00 20.08 ЮЗ 1 10 км 3/0
[Ac trans]
+22.3 +16.9 71 +27 +27 душно 1015.5 997.2
03 20.08 Ю 1 10 км 1/0
[Ac trans]
+19.5 +16.7 84 +23 +23 комфорт 1016.7 998.2 +19.4
06 20.08 С 1 10 км 1/1 600 м
[Cu hum]
+27.7 +16.9 52 +32 +40 очень
душно
1016.2 998.2
09 20.08 С 2 10 км 4/1 600 м
[Cu hum Ci fib]
+34.2 +10.8 24 +34 +46 очень
жарко
1014.9 997.3
12 20.08 СВ 2 10 км 10/3 600 м
[Sc Ac trans Cs]
+35.7 +10.1 21 +35 +38 очень
жарко
1014.4 996.8
15 20.08 С 1 10 км 10/0
[Ac As]
+32.7 +11.2 27 +33 +33 жарко 1012.7 995.0 +36.3
18 20.08 штиль 0 10 км 10/0
[Cs]
+24.6 +15.3 56 +28 +28 душно 1014.9 996.7
21 20.08 СЗ 1 10 км 10/0
[Ac As]
+22.0 +17.0 73 +26 +26 душно 1014.3 996.0
00 21.08 ЮЗ 1 10 км 10/4 600 м
[Sc Ac trans Cs]
+21.1 +16.6 75 +25 +25 комфорт 1013.5 995.1
03 21.08 ЮВ 1 10 км 10/0
[Ac trans Cc]
+20.5 +16.8 79 +25 +25 комфорт 1014.0 995.6 +20.3
06 21.08 ЮВ 1 10 км 9/0
[Ac cast Cs]
+26.9 +16.4 53 +30 +36 душно 1013.8 995.8
09 21.08 В 3 10 км 10/0
[Ac trans Cs]
+35.3 +8.8 20 +34 +43 очень
жарко
1011.6 994.0
12 21.08 СВ 5-10
{11}
10 км 10/0
[Ac cast Ci]
+37.2 +3.2 12 +34 +38 очень
жарко
1009.9 992.5
15 21.08 СВ 4
{10}
10 км 3/0
[Ci fib]
+35.9 +5.9 16 +33 +34 жарко 1009.3 991.8 +37.5
18 21.08 В 3 10 км ясно +31.2 +4.3 18 +29 +29 жарко 1009.8 992.1
21 21.08 В 4 10 км 6/0
[Ac trans]
+28.7 +4.7 22 +27 +27 жарко 1010.2 992.3
00 22.08 СЗ 1 10 км 1/0
[Ac trans]
+19.6 +11.8 61 +22 +22 комфорт 1011.1 992.7
03 22.08 В 1 10 км ясно +19.0 +9.9 56 +21 +21 комфорт 1011.2 992.7 +17.5
06 22.08 В 3 10 км 1/0
[Ac cast]
+29.9 +5.3 21 +28 +34 жарко 1010.8 992.9
09 22.08 В 4
{11}
10 км 1/0
[Ci fib]
+35.3 +5.9 16 +33 +43 жарко 1010.2 992.6
12 22.08 В 5-11
{11}
10 км 10/0
[Ci]
+37.1 +2.7 12 +34 +38 очень
жарко
1009.6 992.1
15 22.08 В 3
{11}
10 км 8/0
[Ac cast Ci fib]
+35.5 +0.8 11 +32 +32 жарко 1009.4 991.9 +37.3
18 22.08 В 2 10 км 8/0
[Ci sp]
+30.4 +1.8 16 +28 +28 жарко 1010.8 992.9
21 22.08 Ю 1 10 км 10/0
[Ac trans Ci]
+26.2 +3.1 22 +25 +25 комфорт 1011.1 993.0
00 23.08 З 1 10 км 10/0
[Ci]
+18.1 +11.3 64 +19 +19 тепло 1011.8 993.2
03 23.08 штиль 0 10 км 10/3 600 м
[Cu Sc Ci]
+15.6 +10.3 71 +15 +16 прохладно 1012.9 994.2 +15.5
06 23.08 штиль 0 10 км 10/0
[Ci]
+27.2 +11.1 37 +28 +36 жарко 1012.2 994.2
09 23.08 СВ 4 10 км 10/5 600 м
[Cu Sc Ci]
+33.5 +4.6 16 +31 +35 жарко 1011.3 993.6
12 23.08 В 3
{10}
10 км 10/4 1000 м
[Sc Ac cast Ci]
+36.0 +6.3 16 +34 +36 очень
жарко
1010.3 992.8
15 23.08 С 2 10 км 8/0
[Ac trans Ci fib]
+34.1 +6.2 18 +32 +32 жарко 1010.3 992.7 +37.2
18 23.08 СВ 3 10 км 3/0
[Ci fib]
+30.2 +5.0 20 +28 +28 жарко 1011.3 993.5
21 23.08 ЮВ 1 10 км 10/0
[Ci]
+21.6 +10.0 48 +23 +23 комфорт 1011.8 993.4
00 24.08 штиль 0 10 км 10/0
[Ci]
+18.8 +13.1 69 +20 +20 тепло 1012.0 993.5
03 24.08 штиль 0 10 км 10/0
[Ac trans Cs]
+18.8 +14.2 75 +20 +20 тепло 1013.4 994.9 +18.0
06 24.08 ЮЗ 1 10 км 10/0
[Ac cast Ci]
+26.4 +15.3 50 +29 +35 жарко 1013.1 995.1
09 24.08 З 2 10 км 10/0
[Cs]
+30.8 +11.5 31 +31 +43 жарко 1012.1 994.3
12 24.08 С 2 10 км 10/0
[Ac As Cs]
+36.4 +8.5 18 +35 +40 очень
жарко
1010.7 993.3
15 24.08 С 2 10 км 10/1 600 м
[Sc Ac cast Cs]
+34.3 +7.8 20 +33 +33 жарко 1011.1 993.5 +37.1
18 24.08 штиль 0 10 км 10/0
[Ac As]
+27.0 +15.1 48 +30 +30 душно 1013.0 995.0
21 24.08 ЮВ 2 10 км 10/0
[Ac As]
+24.4 +16.8 63 +28 +28 душно 1012.9 994.7
00 25.08 ЮВ 1 10 км 9/0
[Ac trans]
+22.2 +14.2 60 +25 +25 комфорт 1012.8 994.5

 

Местоположение метеостанции Армавир (Краснодарский край, Россия): широта 44.98 долгота 41.12 высота над уровнем моря 159 м.

В архиве по умолчанию представлена погода в Армавире за последнюю неделю. Архивные данные за месяц целиком и за предыдущие месяцы, начиная с января 2011 года, Вы можете получить, выбрав интересующий диапазон дат из раскрывающегося списка и нажав кнопку "Ввод!".


*Определитесь, кто Вы:
робот инопланетянин человек

Внимание! Время в таблицах - всемирное. Для получения местного времени необходимо прибавить поправку, которая равна 3 ч.

Смотрите также архив погоды в соседних городах и на ближайших метеорологических станциях:

Погода в Лабинске (Краснодарский край, Россия) (45 км)
Погода в Даховской (Адыгея, Россия) (45 км)
Погода в Новоалександровске (Ставропольский край, Россия) (58 км)
Погода в Дондуковской (Адыгея, Россия) (62 км)
Погода в Изобильном (Ставропольский край, Россия) (63 км)
Погода в Кропоткине (Краснодарский край, Россия) (66 км)
Погода в Отрадной (Краснодарский край, Россия) (71 км)
Погода в Ставрополе (Ставропольский край, Россия) (77 км)
Погода в Невинномысске (Ставропольский край, Россия) (78 км)
Погода в Майкопе (Адыгея, Россия) (91 км)

Пояснения к столбцам:

Ветер - указаны скорость ветра в м/с - средняя за 10 мин, порывы в срок и между сроками (в фигурных скобках) и направление, откуда дует ветер: С - северный, СВ - северо-восточный, В - восточный, ЮВ - юго-восточный, Ю - южный, ЮЗ - юго-западный, З - западный, СЗ - северо-западный.
Видимость - горизонтальная дальность видимости в метрах или километрах. При видимости от 1 до 10 км при отсутствии осадков обычно наблюдается дымка, при ухудшении видимости до 1 км и менее - туман. В сухую погоду видимость может ухудшаться дымом, пылью или мглою.
Явления - указаны атмосферные явления, наблюдавшиеся в срок или в последний час перед сроком; фигурными скобками обозначены явления, наблюдавшиеся между сроками (за 1-3 часа до срока); квадратными скобками обозначены град или гололедные отложения с указанием их диаметра в мм.
Облачность - указаны через наклонную черту общая и нижняя облачность в баллах и высота нижней границы облаков в метрах; квадратными скобками обозначены формы облаков: Ci - перистые, Cs - перисто-слоистые, Cc - перисто-кучевые, Ac - высококучевые, As - высокослоистые, Sc - слоисто-кучевые, Ns - слоисто-дождевые, Cu - кучевые, Cb - кучево-дождевые. Подробнее классификацию облаков см. в Атласе облаков (PDF).
T - Температура воздуха - температура, измеренная на высоте 2 м над землей.
Td - Температура точки росы - температура, при понижении до которой содержащийся в воздухе водяной пар достигнет насыщения.
f - Относительная влажность воздуха - влажноcть воздуха, измеренная на высоте 2 м над землей.
Te - Эффективная температура - температура, которую ощущает одетый по сезону человек в тени. Характеристика душности погоды. При расчете учитывается влияние влажности воздуха и скорости ветра на теплоощущения человека.
Tes - Эффективная температура на солнце - температура, которую ощущает человек, с поправкой на солнечный нагрев. Характеристика знойности погоды. Зависит от высоты солнца над горизонтом, облачности и скорости ветра. Ночью, в пасмурную погоду, а также при ветре 12 м/с и более поправка равна нулю.
P - Атмосферное давление - приведенное к уровню моря атмосферное давление.
Po - Атмосферное давление - измеренное на уровне метеостанции атмосферное давление.
Tmin - Минимальная температура - минимум температуры воздуха на высоте 2 м над землей.
Tmax - Максимальная температура - максимум температуры воздуха на высоте 2 м над землей.
R - Количество осадков - Количество выпавших осадков за период времени, мм. При наведении курсора мыши на число - период времени, за который выпало указанное количество осадков.
R24 - Количество осадков - Количество выпавших осадков за 24 часа, мм.
S - Снежный покров - Высота снежного покрова, см. При наведении курсора мыши на число - состояние снежного покрова и степень покрытия местности в баллах.